When you browse on this site, cookies collect data to enhance your experience and personalize the content and advertising you see.
Visit our Privacy Policy to learn more. By continuing to use the site, you agree to this use of cookies and data.
  • In Hungary
  • List of Countries
  • For 7 days
  • Water Temperature
  • Satellite Maps
  • Weather Map
  • News
  • Weather Widgets
  • user-avatar
    Login

    Hourly Weather Chatelet

    Today, 19 January, Saturday

    Time Temperature Precipitation Wind Pressure Humidity
    00:00 -2°C° 0 mm 3 mps 752 mmHg 84%
    01:00 -2°C° 0 mm 3 mps 751 mmHg 85%
    02:00 -2°C° 0 mm 3 mps 751 mmHg 85%
    03:00 -2°C° 0 mm 3 mps 751 mmHg 86%
    04:00 -2°C° 0 mm 3 mps 751 mmHg 85%
    05:00 -2°C° 0 mm 3 mps 750 mmHg 84%
    06:00 -4°C° 0 mm 4 mps 750 mmHg 83%
    07:00 -3°C° 0 mm 4 mps 750 mmHg 80%
    08:00 -3°C° 0 mm 4 mps 750 mmHg 76%
    09:00 -2°C° 0 mm 5 mps 750 mmHg 73%
    10:00 -1°C° 0 mm 5 mps 749 mmHg 66%
    11:00 0°C° 0 mm 5 mps 749 mmHg 60%
    12:00 +1°C° 0 mm 4 mps 749 mmHg 53%
    13:00 +1°C° 0 mm 4 mps 748 mmHg 54%
    14:00 +2°C° 0 mm 3 mps 748 mmHg 55%
    15:00 +1°C° 0 mm 3 mps 748 mmHg 56%
    16:00 0°C° 0 mm 3 mps 748 mmHg 61%
    17:00 -1°C° 0 mm 3 mps 748 mmHg 65%
    18:00 -2°C° 0 mm 3 mps 748 mmHg 70%
    19:00 -2°C° 0 mm 3 mps 748 mmHg 70%
    20:00 -2°C° 0 mm 3 mps 748 mmHg 71%
    21:00 -4°C° 0 mm 3 mps 748 mmHg 71%
    22:00 -4°C° 0 mm 3 mps 748 mmHg 71%
    23:00 -4°C° 0 mm 3 mps 748 mmHg 71%

    Tomorrow, 20 January, Sunday

    Time Temperature Precipitation Wind Pressure Humidity
    00:00 -3°C° 0 mm 2 mps 748 mmHg 71%
    01:00 -3°C° 0 mm 2 mps 748 mmHg 70%
    02:00 -3°C° 0 mm 2 mps 748 mmHg 69%
    03:00 -3°C° 0 mm 2 mps 748 mmHg 68%
    04:00 -3°C° 0 mm 2 mps 748 mmHg 67%
    05:00 -3°C° 0 mm 2 mps 748 mmHg 67%
    06:00 -3°C° 0 mm 2 mps 748 mmHg 66%
    07:00 -3°C° 0 mm 2 mps 749 mmHg 64%
    08:00 -3°C° 0 mm 2 mps 749 mmHg 61%
    09:00 -2°C° 0 mm 2 mps 750 mmHg 59%
    10:00 -1°C° 0 mm 2 mps 750 mmHg 54%
    11:00 +1°C° 0 mm 2 mps 750 mmHg 49%
    12:00 +2°C° 0 mm 2 mps 750 mmHg 45%
    13:00 +2°C° 0 mm 2 mps 750 mmHg 47%
    14:00 +2°C° 0 mm 2 mps 751 mmHg 50%
    15:00 +1°C° 0 mm 2 mps 751 mmHg 52%
    16:00 -1°C° 0 mm 2 mps 751 mmHg 57%
    17:00 -2°C° 0 mm 2 mps 752 mmHg 62%
    18:00 -3°C° 0 mm 2 mps 752 mmHg 68%
    19:00 -3°C° 0 mm 2 mps 753 mmHg 68%
    20:00 -3°C° 0 mm 2 mps 753 mmHg 69%
    21:00 -3°C° 0 mm 2 mps 754 mmHg 70%
    22:00 -4°C° 0 mm 2 mps 754 mmHg 70%
    23:00 -4°C° 0 mm 2 mps 755 mmHg 69%

    Day after tomorrow, 21 January, Monday

    Time Temperature Precipitation Wind Pressure Humidity
    00:00 -4°C° 0 mm 2 mps 755 mmHg 69%
    01:00 -2°C° 0 mm 1 mps 755 mmHg 68%
    02:00 -2°C° 0 mm 1 mps 755 mmHg 67%
    03:00 -2°C° 0 mm 1 mps 755 mmHg 66%
    04:00 -2°C° 0 mm 1 mps 756 mmHg 65%
    05:00 -2°C° 0 mm 1 mps 756 mmHg 64%
    06:00 -2°C° 0 mm 1 mps 756 mmHg 63%
    07:00 -1°C° 0 mm 1 mps 756 mmHg 60%
    08:00 -1°C° 0 mm 1 mps 756 mmHg 56%
    09:00 -1°C° 0 mm 0 mps 756 mmHg 53%
    10:00 0°C° 0 mm 0 mps 756 mmHg 48%
    11:00 +1°C° 0 mm 0 mps 756 mmHg 43%
    12:00 +2°C° 0 mm 0 mps 756 mmHg 39%
    13:00 +2°C° 0 mm 0 mps 755 mmHg 41%
    14:00 +2°C° 0 mm 0 mps 755 mmHg 44%
    15:00 +2°C° 0 mm 0 mps 754 mmHg 47%
    16:00 +2°C° 0 mm 1 mps 754 mmHg 48%
    17:00 +1°C° 0 mm 1 mps 754 mmHg 50%
    18:00 0°C° 0 mm 1 mps 753 mmHg 51%
    19:00 -3°C° 0 mm 2 mps 753 mmHg 53%
    20:00 -3°C° 0 mm 2 mps 752 mmHg 54%
    21:00 -4°C° 0 mm 3 mps 752 mmHg 55%
    22:00 -4°C° 0 mm 3 mps 751 mmHg 55%
    23:00 -4°C° 0 mm 4 mps 751 mmHg 56%

    22 January, Tuesday

    Time Temperature Precipitation Wind Pressure Humidity
    00:00 -5°C° 0 mm 5 mps 750 mmHg 56%
    01:00 -5°C° 0 mm 5 mps 749 mmHg 57%
    02:00 -5°C° 0 mm 6 mps 748 mmHg 58%
    03:00 -5°C° 0 mm 6 mps 747 mmHg 60%
    04:00 -4°C° 0 mm 7 mps 746 mmHg 58%
    05:00 -4°C° 0 mm 7 mps 744 mmHg 57%
    06:00 -4°C° 0 mm 7 mps 743 mmHg 56%
    07:00 -5°C° 0.1 mm 8 mps 743 mmHg 59%
    08:00 -5°C° 0.1 mm 8 mps 742 mmHg 62%
    09:00 -5°C° 0.1 mm 8 mps 742 mmHg 65%
    10:00 -4°C° 0.4 mm 7 mps 741 mmHg 71%
    11:00 -4°C° 0.4 mm 6 mps 741 mmHg 77%
    12:00 -4°C° 0.4 mm 6 mps 741 mmHg 83%
    13:00 -4°C° 0.4 mm 5 mps 740 mmHg 86%
    14:00 -3°C° 0.4 mm 4 mps 739 mmHg 89%
    15:00 -2°C° 0.4 mm 3 mps 739 mmHg 92%
    16:00 -2°C° 0.5 mm 2 mps 739 mmHg 93%
    17:00 0°C° 0.5 mm 1 mps 739 mmHg 95%
    18:00 0°C° 0.5 mm 1 mps 739 mmHg 97%
    19:00 0°C° 0.5 mm 1 mps 739 mmHg 97%
    20:00 0°C° 0.5 mm 1 mps 739 mmHg 97%
    21:00 0°C° 0.5 mm 1 mps 739 mmHg 97%
    22:00 0°C° 0.5 mm 1 mps 739 mmHg 97%
    23:00 0°C° 0.5 mm 1 mps 739 mmHg 97%

    23 January, Wednesday

    Time Temperature Precipitation Wind Pressure Humidity
    00:00 -2°C° 0.5 mm 2 mps 739 mmHg 97%
    01:00 -2°C° 0.3 mm 2 mps 739 mmHg 97%
    02:00 -2°C° 0.3 mm 2 mps 738 mmHg 97%
    03:00 -2°C° 0.3 mm 2 mps 738 mmHg 97%
    04:00 -2°C° 0.1 mm 2 mps 739 mmHg 97%
    05:00 -2°C° 0.1 mm 2 mps 739 mmHg 97%
    06:00 -2°C° 0.1 mm 2 mps 739 mmHg 97%
    07:00 -2°C° 0 mm 2 mps 740 mmHg 97%
    08:00 -2°C° 0 mm 2 mps 740 mmHg 97%
    09:00 -2°C° 0 mm 2 mps 741 mmHg 97%
    10:00 -1°C° 0 mm 2 mps 741 mmHg 97%
    11:00 -1°C° 0 mm 2 mps 741 mmHg 97%
    12:00 -1°C° 0 mm 2 mps 742 mmHg 98%
    13:00 -1°C° 0 mm 2 mps 742 mmHg 97%
    14:00 -1°C° 0 mm 2 mps 742 mmHg 97%
    15:00 -1°C° 0 mm 2 mps 742 mmHg 96%
    16:00 -1°C° 0 mm 2 mps 743 mmHg 96%
    17:00 +1°C° 0 mm 1 mps 743 mmHg 96%
    18:00 0°C° 0 mm 1 mps 744 mmHg 96%
    19:00 0°C° 0 mm 1 mps 744 mmHg 96%
    20:00 0°C° 0 mm 1 mps 745 mmHg 96%
    21:00 -1°C° 0 mm 1 mps 745 mmHg 96%
    22:00 -1°C° 0 mm 1 mps 745 mmHg 96%
    23:00 -1°C° 0 mm 1 mps 745 mmHg 96%

    24 January, Thursday

    Time Temperature Precipitation Wind Pressure Humidity
    00:00 -1°C° 0 mm 1 mps 745 mmHg 96%
    01:00 -1°C° 0 mm 1 mps 745 mmHg 96%
    02:00 -2°C° 0 mm 1 mps 745 mmHg 95%
    03:00 -2°C° 0 mm 1 mps 745 mmHg 95%
    04:00 -2°C° 0 mm 1 mps 745 mmHg 94%
    05:00 -3°C° 0 mm 1 mps 745 mmHg 93%
    06:00 -3°C° 0 mm 1 mps 746 mmHg 92%
    07:00 -2°C° 0 mm 1 mps 746 mmHg 92%
    08:00 -2°C° 0 mm 1 mps 746 mmHg 92%
    09:00 -1°C° 0 mm 1 mps 746 mmHg 92%
    10:00 0°C° 0 mm 1 mps 747 mmHg 92%
    11:00 +1°C° 0 mm 1 mps 747 mmHg 93%
    12:00 +2°C° 0 mm 1 mps 747 mmHg 93%
    13:00 +2°C° 0 mm 1 mps 747 mmHg 94%
    14:00 +1°C° 0 mm 1 mps 747 mmHg 95%
    15:00 +1°C° 0 mm 1 mps 748 mmHg 96%
    16:00 +1°C° 0 mm 1 mps 748 mmHg 96%
    17:00 -2°C° 0 mm 2 mps 749 mmHg 96%
    18:00 -3°C° 0 mm 2 mps 750 mmHg 96%
    19:00 -3°C° 0 mm 2 mps 750 mmHg 96%
    20:00 -4°C° 0 mm 2 mps 751 mmHg 96%
    21:00 -4°C° 0 mm 2 mps 752 mmHg 96%
    22:00 -5°C° 0 mm 2 mps 752 mmHg 96%
    23:00 -5°C° 0 mm 2 mps 753 mmHg 95%
    Show more